Moose, Wyoming, United States (83012)
Lat: 43.66N, Lon: 110.72W
Wx Zone: WYZ013
Local Info
Past Weather Observations for Tuesday, August 19, 2014

NOTE: This archive is for the closest National Weather Service station to Moose. Information may differ from the station used for current weather conditions.

Click here for Long-term Archive

Time Weather Temperature Dewpoint Humidity Pressure Winds Precip Visibility
23:55
Overcast
54°F / 12°C 50°F / 10°C 88% 30.06 in
(1018 mb)
S 6.9 mph
(S 11 kph)
- 10SM
23:35
Overcast
54°F / 12°C 48°F / 9°C 82% 30.06 in
(1018 mb)
SSE 6.9 mph
(SSE 11 kph)
- 10SM
23:15
Overcast
55°F / 13°C 46°F / 8°C 72% 30.06 in
(1018 mb)
SSE 5.8 mph
(SSE 9 kph)
- 10SM
22:55
Mostly Cloudy
55°F / 13°C 46°F / 8°C 72% 30.06 in
(1018 mb)
Calm - 10SM
22:35
Clear
55°F / 13°C 46°F / 8°C 72% 30.04 in
(1017 mb)
NW 6.9 mph
(NW 11 kph)
- 10SM
22:15
Clear
55°F / 13°C 46°F / 8°C 72% 30.04 in
(1017 mb)
NNW 4.6 mph
(NNW 7 kph)
- 10SM
21:55
Clear
57°F / 14°C 45°F / 7°C 63% 30.04 in
(1017 mb)
W 5.8 mph
(W 9 kph)
- 10SM
21:35
Clear
57°F / 14°C 46°F / 8°C 67% 30.04 in
(1017 mb)
SW 5.8 mph
(SW 9 kph)
- 10SM
21:15
Partly Cloudy
55°F / 13°C 48°F / 9°C 77% 30.04 in
(1017 mb)
SE 6.9 mph
(SE 11 kph)
- 10SM
20:55
Overcast
55°F / 13°C 46°F / 8°C 72% 30.06 in
(1018 mb)
SSW 3.5 mph
(SSW 6 kph)
- 10SM
20:35
Overcast
55°F / 13°C 46°F / 8°C 72% 30.06 in
(1018 mb)
WNW 4.6 mph
(WNW 7 kph)
- 10SM
20:15
Mostly Cloudy
54°F / 12°C 46°F / 8°C 77% 30.04 in
(1017 mb)
E 4.6 mph
(E 7 kph)
- 10SM
19:55
Clear
54°F / 12°C 46°F / 8°C 77% 30.04 in
(1017 mb)
Calm - 10SM
18:51
Clear
57°F / 14°C 48°F / 9°C 72% 30.04 in
(1017 mb)
S 10.4 mph
(S 17 kph)
- 10SM
17:55
Clear
61°F / 16°C 46°F / 8°C 59% 30.01 in
(1016 mb)
SW 16.1 mph
(SW 26 kph)
- 10SM
16:52
Mostly Cloudy
Thunder Storms
66°F / 19°C 45°F / 7°C 46% 30.01 in
(1016 mb)
S 11.5 mph
(S 19 kph)
- 10SM
15:51
Overcast
Showers In Vicinity
70°F / 21°C 39°F / 4°C 33% 30.01 in
(1016 mb)
SW 3.5 mph
(SW 6 kph)
- 10SM
14:51
Showers In Vicinity
72°F / 22°C 39°F / 4°C 31% 29.98 in
(1015 mb)
W 6.9 mph
(W 11 kph)
- 10SM
13:52
Mostly Cloudy
Showers In Vicinity
75°F / 24°C 39°F / 4°C 27% 30.01 in
(1016 mb)
SW 6.9 mph
(SW 11 kph)
- 10SM
12:51
Overcast
73°F / 23°C 45°F / 7°C 36% 30.04 in
(1017 mb)
S 10.4 mph
(S 17 kph)
- 10SM
11:51
Fair
70°F / 21°C 46°F / 8°C 43% 30.04 in
(1017 mb)
SSW 4.6 mph
(SSW 7 kph)
- 10SM
10:51
Fair
66°F / 19°C 43°F / 6°C 43% 30.06 in
(1018 mb)
SSE 4.6 mph
(SSE 7 kph)
- 10SM
09:55
Clear
64°F / 18°C 45°F / 7°C 49% 30.09 in
(1019 mb)
S 4.6 mph
(S 7 kph)
- 10SM
08:57
Clear
63°F / 17°C 39°F / 4°C 42% 30.09 in
(1019 mb)
S 4.6 mph
(S 7 kph)
- 10SM
07:54
Clear
55°F / 13°C 43°F / 6°C 63% 30.09 in
(1019 mb)
Calm - 10SM
06:57
Clear
48°F / 9°C 39°F / 4°C 71% 30.09 in
(1019 mb)
Calm - 10SM
05:51
Clear
46°F / 8°C 39°F / 4°C 76% 30.09 in
(1019 mb)
Calm - 10SM
05:35
Clear
48°F / 9°C 39°F / 4°C 71% 30.09 in
(1019 mb)
NW 3.5 mph
(NW 6 kph)
- 10SM
05:15
Partly Cloudy
48°F / 9°C 39°F / 4°C 71% 30.06 in
(1018 mb)
NE 8.1 mph
(NE 13 kph)
- 10SM
04:55
Partly Cloudy
46°F / 8°C 39°F / 4°C 76% 30.06 in
(1018 mb)
N 9.2 mph
(N 15 kph)
- 10SM
04:35
Clear
46°F / 8°C 39°F / 4°C 76% 30.09 in
(1019 mb)
N 6.9 mph
(N 11 kph)
- 10SM
04:15
Clear
46°F / 8°C 39°F / 4°C 76% 30.09 in
(1019 mb)
N 10.4 mph
(N 17 kph)
- 10SM
03:55
Partly Cloudy
48°F / 9°C 39°F / 4°C 71% 30.09 in
(1019 mb)
N 8.1 mph
(N 13 kph)
- 10SM
03:35
Mostly Cloudy
46°F / 8°C 39°F / 4°C 76% 30.09 in
(1019 mb)
NNE 5.8 mph
(NNE 9 kph)
- 10SM
03:15
Clear
48°F / 9°C 39°F / 4°C 71% 30.09 in
(1019 mb)
NNE 5.8 mph
(NNE 9 kph)
- 10SM
02:55
Clear
46°F / 8°C 39°F / 4°C 76% 30.09 in
(1019 mb)
NNW 6.9 mph
(NNW 11 kph)
- 10SM
02:35
Clear
48°F / 9°C 39°F / 4°C 71% 30.09 in
(1019 mb)
Calm - 10SM
02:15
Clear
48°F / 9°C 39°F / 4°C 71% 30.09 in
(1019 mb)
ENE 6.9 mph
(ENE 11 kph)
- 10SM
01:55
Clear
46°F / 8°C 39°F / 4°C 76% 30.09 in
(1019 mb)
N 10.4 mph
(N 17 kph)
- 10SM
01:35
Clear
48°F / 9°C 39°F / 4°C 71% 30.09 in
(1019 mb)
NNE 4.6 mph
(NNE 7 kph)
- 10SM
01:15
Clear
50°F / 10°C 39°F / 4°C 67% 30.09 in
(1019 mb)
N 5.8 mph
(N 9 kph)
- 10SM
00:55
Clear
52°F / 11°C 39°F / 4°C 62% 30.09 in
(1019 mb)
N 5.8 mph
(N 9 kph)
- 10SM
00:35
Clear
50°F / 10°C 39°F / 4°C 67% 30.09 in
(1019 mb)
Calm - 10SM
00:15
Clear
52°F / 11°C 39°F / 4°C 62% 30.09 in
(1019 mb)
N 8.1 mph
(N 13 kph)
- 10SM
Time Weather Temperature Dewpoint Humidity Pressure Winds Precip Visibility


Weather for websites

WeatherForYou.com, LLC is not responsible for any damages or problems caused by this service. Current weather conditions are obtained from the closest station including government and personal stations which may have varying degrees of accuracy. Weather forecasts are derived from the NOAA NDFD. Like all things, this site belongs to Jesus Christ... He just trusts me to maintain it. If you have any questions or comments email webmaster@weatherforyou.com

Copyright © 2014, WeatherForYou.com LLC. All rights reserved.